| time (UTC) | temp C | wind direction | speed KPH | gust KPH | rain 1hr cm | rain 24hr cm | rain mn cm | humidity % | barometer mb |
| 20260507092357 | 25 | 80 | 0.0 | 0.0 | 0.00 | 1.63 | 1.63 | 96 | 1010.8 |
| 20260507091854 | 25 | 80 | 0.0 | 3.2 | 0.00 | 1.63 | 1.63 | 95 | 1010.8 |
| 20260507091350 | 25 | 68 | 3.2 | 4.8 | 0.00 | 1.60 | 1.60 | 95 | 1010.8 |
| 20260507090846 | 25 | 68 | 3.2 | 6.4 | 0.00 | 1.60 | 1.60 | 95 | 1010.8 |
| 20260507090342 | 25 | 68 | 1.6 | 3.2 | 0.00 | 1.60 | 1.60 | 96 | 1010.8 |
| 20260507085840 | 25 | 68 | 0.0 | 1.6 | 0.00 | 1.60 | 1.60 | 95 | 1010.8 |
| 20260507085336 | 25 | 68 | 1.6 | 3.2 | 0.00 | 1.60 | 1.60 | 96 | 1010.8 |
| 20260507084834 | 25 | 68 | 0.0 | 0.0 | 0.00 | 1.60 | 1.60 | 96 | 1010.8 |
| 20260507084330 | 25 | 68 | 0.0 | 0.0 | 0.00 | 1.60 | 1.60 | 96 | 1010.8 |
| 20260507083828 | 25 | 68 | 0.0 | 0.0 | 0.00 | 1.60 | 1.60 | 96 | 1010.8 |
| 20260507083324 | 25 | 68 | 0.0 | 0.0 | 0.00 | 1.60 | 1.60 | 95 | 1010.8 |
| 20260507082820 | 25 | 68 | 0.0 | 3.2 | 0.00 | 1.60 | 1.60 | 95 | 1010.8 |
| 20260507082316 | 25 | 45 | 0.0 | 0.0 | 0.00 | 1.60 | 1.60 | 95 | 1010.8 |
| 20260507081813 | 25 | 45 | 1.6 | 4.8 | 0.00 | 1.60 | 1.60 | 95 | 1010.8 |
| 20260507081309 | 25 | 45 | 4.8 | 9.7 | 0.00 | 1.60 | 1.60 | 95 | 1010.8 |
| 20260507080806 | 26 | 56 | 0.0 | 3.2 | 0.00 | 1.60 | 1.60 | 94 | 1010.8 |
| 20260507080302 | 26 | 56 | 0.0 | 0.0 | 0.00 | 1.60 | 1.60 | 94 | 1010.8 |
| 20260507075757 | 26 | 100 | 0.0 | 0.0 | 1.19 | 1.57 | 1.57 | 94 | 1010.8 |
| 20260507075254 | 26 | 100 | 0.0 | 3.2 | 0.00 | 1.55 | 1.55 | 92 | 1010.5 |
| 20260507074750 | 26 | 188 | 0.0 | 0.0 | 0.00 | 1.55 | 1.55 | 93 | 1010.5 |
| 20260507074249 | 26 | 188 | 0.0 | 4.8 | 0.00 | 1.55 | 1.55 | 92 | 1010.2 |
| 20260507073745 | 26 | 67 | 1.6 | 4.8 | 0.00 | 1.55 | 1.55 | 91 | 1010.2 |
| 20260507073242 | 26 | 67 | 0.0 | 3.2 | 0.00 | 1.55 | 1.55 | 91 | 1010.2 |
| 20260507072740 | 26 | 64 | 1.6 | 4.8 | 0.00 | 1.55 | 1.55 | 91 | 1010.2 |
| 20260507072237 | 26 | 64 | 1.6 | 4.8 | 0.00 | 1.55 | 1.55 | 91 | 1009.8 |
| 20260507071734 | 26 | 66 | 3.2 | 9.7 | 0.00 | 1.55 | 1.55 | 91 | 1009.8 |
| 20260507071230 | 26 | 72 | 0.0 | 0.0 | 0.00 | 1.55 | 1.55 | 91 | 1009.5 |
| 20260507070727 | 26 | 72 | 0.0 | 1.6 | 0.00 | 1.55 | 1.55 | 91 | 1009.5 |
| 20260507070224 | 26 | 38 | 1.6 | 6.4 | 0.00 | 1.55 | 1.55 | 91 | 1009.5 |
| 20260507065720 | 26 | 73 | 0.0 | 3.2 | 0.00 | 1.55 | 1.55 | 91 | 1009.5 |
| 20260507065218 | 26 | 52 | 0.0 | 1.6 | 0.00 | 1.55 | 1.55 | 90 | 1009.1 |
| 20260507064715 | 26 | 52 | 0.0 | 0.0 | 0.00 | 1.55 | 1.55 | 90 | 1009.1 |
| 20260507064214 | 26 | 52 | 0.0 | 1.6 | 0.00 | 1.55 | 1.55 | 90 | 1009.1 |
| 20260507063710 | 26 | 55 | 1.6 | 4.8 | 0.00 | 1.55 | 1.55 | 90 | 1009.1 |
| 20260507063207 | 26 | 18 | 0.0 | 3.2 | 0.00 | 1.55 | 1.55 | 90 | 1009.1 |
| 20260507062704 | 26 | 18 | 0.0 | 0.0 | 0.00 | 1.55 | 1.55 | 90 | 1009.1 |
| 20260507062202 | 26 | 18 | 0.0 | 3.2 | 0.00 | 1.55 | 1.55 | 89 | 1009.1 |
| 20260507061659 | 26 | 18 | 0.0 | 0.0 | 0.00 | 1.55 | 1.55 | 89 | 1009.1 |
| 20260507061157 | 26 | 18 | 0.0 | 0.0 | 0.00 | 1.55 | 1.55 | 88 | 1008.8 |
| 20260507060655 | 26 | 16 | 0.0 | 0.0 | 0.00 | 1.55 | 1.55 | 89 | 1008.8 |
| 20260507060151 | 26 | 16 | 4.8 | 6.4 | 0.00 | 1.55 | 1.55 | 89 | 1008.8 |
| 20260507055647 | 26 | 346 | 0.0 | 0.0 | 0.00 | 1.55 | 1.55 | 90 | 1008.4 |
| 20260507055143 | 26 | 346 | 0.0 | 0.0 | 0.00 | 1.55 | 1.55 | 90 | 1008.4 |
| 20260507054639 | 26 | 40 | 6.4 | 11.3 | 0.00 | 1.55 | 1.55 | 90 | 1008.0 |
| 20260507054136 | 26 | 50 | 1.6 | 4.8 | 0.00 | 1.55 | 1.55 | 91 | 1008.0 |
| 20260507053634 | 26 | 68 | 3.2 | 9.7 | 0.00 | 1.55 | 1.55 | 91 | 1008.0 |
| 20260507053132 | 26 | 76 | 3.2 | 8.0 | 0.00 | 1.55 | 1.55 | 91 | 1008.0 |
| 20260507052630 | 26 | 65 | 8.0 | 14.5 | 0.00 | 1.55 | 1.55 | 91 | 1008.0 |
| 20260507052126 | 26 | 45 | 4.8 | 9.7 | 0.00 | 1.55 | 1.55 | 91 | 1008.0 |
| 20260507051624 | 26 | 57 | 3.2 | 9.7 | 0.00 | 1.55 | 1.55 | 91 | 1008.0 |
| 20260507051120 | 26 | 50 | 6.4 | 16.1 | 0.00 | 1.55 | 1.55 | 91 | 1008.0 |
| 20260507050617 | 26 | 72 | 6.4 | 12.9 | 0.00 | 1.55 | 1.55 | 91 | 1008.0 |
| 20260507050114 | 26 | 79 | 4.8 | 14.5 | 0.00 | 1.55 | 1.55 | 92 | 1008.0 |
| 20260507045611 | 26 | 78 | 6.4 | 12.9 | 0.00 | 1.55 | 1.55 | 92 | 1008.0 |
| 20260507045108 | 26 | 51 | 3.2 | 6.4 | 0.00 | 1.55 | 1.55 | 92 | 1008.0 |
| 20260507044604 | 26 | 74 | 6.4 | 12.9 | 0.00 | 1.55 | 1.55 | 92 | 1008.0 |
| 20260507044101 | 26 | 30 | 3.2 | 14.5 | 0.00 | 1.55 | 1.55 | 92 | 1008.0 |
| 20260507043557 | 26 | 50 | 4.8 | 12.9 | 0.00 | 1.55 | 1.55 | 91 | 1008.4 |
| 20260507043055 | 26 | 81 | 4.8 | 11.3 | 0.00 | 1.55 | 1.55 | 91 | 1008.4 |
| 20260507042550 | 26 | 63 | 3.2 | 6.4 | 0.00 | 1.55 | 1.55 | 91 | 1008.4 |
| 20260507042046 | 26 | 38 | 3.2 | 6.4 | 0.00 | 1.55 | 1.55 | 91 | 1008.0 |
| 20260507041543 | 26 | 75 | 6.4 | 16.1 | 0.00 | 1.55 | 1.55 | 92 | 1008.0 |
| 20260507041040 | 26 | 127 | 0.0 | 4.8 | 0.00 | 1.55 | 1.55 | 93 | 1008.4 |
| 20260507040536 | 26 | 60 | 6.4 | 14.5 | 0.00 | 1.55 | 1.55 | 93 | 1008.4 |
| 20260507040032 | 26 | 56 | 8.0 | 12.9 | 0.00 | 1.52 | 1.52 | 93 | 1008.4 |
| 20260507035529 | 26 | 46 | 4.8 | 8.0 | 0.00 | 1.52 | 1.52 | 93 | 1008.4 |
| 20260507035025 | 26 | 48 | 4.8 | 16.1 | 0.00 | 1.52 | 1.52 | 93 | 1008.4 |
| 20260507034522 | 26 | 67 | 3.2 | 6.4 | 0.00 | 1.52 | 1.52 | 93 | 1008.8 |
| 20260507034020 | 26 | 84 | 4.8 | 8.0 | 0.00 | 1.52 | 1.52 | 93 | 1008.8 |
| 20260507033518 | 26 | 74 | 8.0 | 20.9 | 0.00 | 1.50 | 1.50 | 92 | 1008.4 |
| 20260507033015 | 26 | 61 | 6.4 | 19.3 | 0.00 | 1.50 | 1.50 | 92 | 1008.4 |
| 20260507032512 | 26 | 74 | 6.4 | 12.9 | 0.00 | 1.50 | 1.50 | 93 | 1008.8 |
| 20260507032008 | 26 | 78 | 9.7 | 19.3 | 0.00 | 1.50 | 1.50 | 93 | 1008.8 |
| 20260507031504 | 26 | 92 | 4.8 | 22.5 | 0.00 | 1.50 | 1.50 | 93 | 1008.8 |
| 20260507031001 | 26 | 77 | 9.7 | 17.7 | 0.00 | 1.50 | 1.50 | 94 | 1009.1 |
| 20260507030458 | 26 | 98 | 6.4 | 20.9 | 0.00 | 1.50 | 1.50 | 94 | 1009.1 |
| 20260507025955 | 26 | 78 | 9.7 | 17.7 | 0.00 | 1.50 | 1.50 | 95 | 1009.1 |
| 20260507025452 | 26 | 113 | 3.2 | 12.9 | 0.00 | 1.50 | 1.50 | 95 | 1009.1 |
| 20260507024950 | 26 | 73 | 11.3 | 16.1 | 0.00 | 1.50 | 1.50 | 95 | 1009.1 |
| 20260507024448 | 26 | 61 | 8.0 | 17.7 | 0.00 | 1.50 | 1.50 | 94 | 1009.1 |
| 20260507023943 | 26 | 56 | 3.2 | 9.7 | 0.00 | 1.47 | 1.47 | 95 | 1009.1 |
| 20260507023440 | 26 | 80 | 6.4 | 14.5 | 0.00 | 1.47 | 1.47 | 94 | 1009.5 |
| 20260507022937 | 27 | 77 | 4.8 | 8.0 | 0.00 | 1.47 | 1.47 | 92 | 1009.5 |
| 20260507022435 | 27 | 75 | 8.0 | 14.5 | 0.00 | 1.47 | 1.47 | 92 | 1009.5 |
| 20260507021930 | 27 | 59 | 4.8 | 8.0 | 0.00 | 1.47 | 1.47 | 92 | 1009.5 |
| 20260507021425 | 27 | 64 | 6.4 | 8.0 | 0.00 | 1.47 | 1.47 | 93 | 1009.5 |
| 20260507020923 | 27 | 101 | 3.2 | 8.0 | 0.00 | 1.47 | 1.47 | 92 | 1009.8 |
| 20260507020420 | 26 | 81 | 3.2 | 9.7 | 0.00 | 1.47 | 1.47 | 93 | 1009.8 |
| 20260507015917 | 26 | 80 | 6.4 | 12.9 | 0.00 | 1.47 | 1.47 | 93 | 1009.8 |
| 20260507015415 | 26 | 58 | 9.7 | 19.3 | 0.00 | 1.47 | 1.47 | 93 | 1009.8 |
| 20260507014912 | 26 | 65 | 9.7 | 24.1 | 0.00 | 1.47 | 1.47 | 93 | 1009.8 |
| 20260507014408 | 26 | 59 | 9.7 | 17.7 | 0.00 | 1.47 | 1.47 | 93 | 1010.2 |
| 20260507013904 | 26 | 75 | 4.8 | 12.9 | 0.00 | 1.47 | 1.47 | 93 | 1010.2 |
| 20260507013402 | 26 | 63 | 8.0 | 16.1 | 0.00 | 1.47 | 1.47 | 93 | 1010.2 |
| 20260507012859 | 26 | 65 | 6.4 | 17.7 | 0.00 | 1.47 | 1.47 | 94 | 1010.2 |
| 20260507012355 | 26 | 48 | 9.7 | 17.7 | 0.00 | 1.47 | 1.47 | 94 | 1010.2 |
| 20260507011852 | 26 | 63 | 6.4 | 14.5 | 0.00 | 1.47 | 1.47 | 94 | 1010.2 |
| 20260507011349 | 26 | 63 | 6.4 | 16.1 | 0.00 | 1.47 | 1.47 | 94 | 1010.2 |
| 20260507010849 | 26 | 50 | 9.7 | 19.3 | 0.00 | 1.47 | 1.47 | 94 | 1010.2 |
| 20260507010345 | 26 | 65 | 6.4 | 11.3 | 0.00 | 1.47 | 1.47 | 93 | 1010.2 |
| 20260507005842 | 27 | 62 | 6.4 | 17.7 | 0.00 | 1.47 | 1.47 | 93 | 1010.2 |
| 20260507005339 | 27 | 64 | 4.8 | 9.7 | 0.00 | 1.47 | 1.47 | 92 | 1010.2 |
| 20260507004836 | 27 | 69 | 9.7 | 19.3 | 0.00 | 1.47 | 1.47 | 91 | 1010.2 |
| 20260507004333 | 27 | 54 | 8.0 | 12.9 | 0.00 | 1.47 | 1.47 | 92 | 1010.2 |
| 20260507003830 | 27 | 45 | 6.4 | 12.9 | 0.00 | 1.47 | 1.47 | 93 | 1010.5 |
| 20260507003325 | 27 | 70 | 3.2 | 11.3 | 0.00 | 1.47 | 1.47 | 92 | 1010.5 |
| 20260507002820 | 26 | 82 | 6.4 | 9.7 | 0.00 | 1.47 | 1.47 | 92 | 1010.5 |
| 20260507002317 | 26 | 67 | 6.4 | 12.9 | 0.00 | 1.47 | 1.47 | 92 | 1010.5 |
| 20260507001814 | 26 | 61 | 6.4 | 16.1 | 0.00 | 1.47 | 1.47 | 91 | 1010.5 |
| 20260507001312 | 26 | 60 | 11.3 | 16.1 | 0.00 | 1.47 | 1.47 | 91 | 1010.5 |
| 20260507000808 | 26 | 46 | 8.0 | 17.7 | 0.00 | 1.47 | 1.47 | 92 | 1010.5 |
| 20260507000306 | 26 | 68 | 6.4 | 11.3 | 0.00 | 1.47 | 1.47 | 93 | 1010.5 |
| 20260506235801 | 26 | 55 | 4.8 | 8.0 | 0.00 | 1.47 | 1.47 | 94 | 1010.8 |
| 20260506235256 | 26 | 65 | 6.4 | 11.3 | 0.00 | 1.47 | 1.47 | 95 | 1010.8 |
| 20260506234753 | 26 | 65 | 3.2 | 9.7 | 0.00 | 1.47 | 1.47 | 96 | 1010.8 |
| 20260506234250 | 25 | 66 | 6.4 | 9.7 | 0.00 | 1.47 | 1.47 | 96 | 1010.8 |
| 20260506233748 | 25 | 50 | 6.4 | 11.3 | 0.00 | 1.47 | 1.47 | 96 | 1010.8 |
| 20260506233244 | 25 | 58 | 8.0 | 17.7 | 0.00 | 1.47 | 1.47 | 96 | 1010.8 |
| 20260506232741 | 25 | 72 | 8.0 | 17.7 | 0.00 | 1.47 | 1.47 | 96 | 1011.2 |
| 20260506232235 | 25 | 60 | 8.0 | 16.1 | 0.00 | 1.47 | 1.47 | 96 | 1011.2 |
| 20260506231733 | 25 | 73 | 3.2 | 9.7 | 0.00 | 1.47 | 1.47 | 96 | 1011.2 |
| 20260506231231 | 25 | 62 | 8.0 | 19.3 | 0.00 | 1.47 | 1.47 | 96 | 1011.2 |
| 20260506230728 | 25 | 63 | 8.0 | 12.9 | 0.00 | 1.47 | 1.47 | 97 | 1011.2 |
| 20260506230225 | 25 | 56 | 9.7 | 14.5 | 0.00 | 1.47 | 1.47 | 97 | 1011.5 |
| 20260506225721 | 25 | 63 | 9.7 | 16.1 | 0.00 | 1.47 | 1.47 | 97 | 1011.5 |
| 20260506225218 | 25 | 76 | 4.8 | 8.0 | 1.19 | 1.45 | 1.45 | 97 | 1011.5 |
| 20260506224714 | 25 | 61 | 4.8 | 6.4 | 0.00 | 1.45 | 1.45 | 97 | 1011.9 |
| 20260506224212 | 25 | 50 | 8.0 | 12.9 | 0.00 | 1.45 | 1.45 | 97 | 1011.9 |
| 20260506223708 | 25 | 61 | 6.4 | 9.7 | 0.00 | 1.42 | 1.42 | 96 | 1011.9 |
| 20260506223204 | 25 | 81 | 3.2 | 6.4 | 0.00 | 1.42 | 1.42 | 96 | 1012.2 |
| 20260506222701 | 25 | 55 | 3.2 | 8.0 | 0.00 | 1.40 | 1.40 | 95 | 1012.2 |
| 20260506222156 | 25 | 75 | 6.4 | 11.3 | 0.00 | 1.40 | 1.40 | 95 | 1012.2 |
| 20260506221655 | 25 | 50 | 6.4 | 9.7 | 0.00 | 1.40 | 1.40 | 95 | 1012.2 |
| 20260506221153 | 25 | 9 | 3.2 | 6.4 | 0.00 | 1.40 | 1.40 | 95 | 1012.2 |
| 20260506220649 | 25 | 52 | 3.2 | 6.4 | 0.00 | 1.40 | 1.40 | 95 | 1012.2 |
| 20260506220144 | 25 | 91 | 4.8 | 11.3 | 0.00 | 1.40 | 1.40 | 96 | 1012.2 |
| 20260506215641 | 25 | 31 | 4.8 | 9.7 | 0.00 | 1.40 | 1.40 | 96 | 1012.2 |
| 20260506215136 | 25 | 70 | 3.2 | 6.4 | 0.00 | 1.40 | 1.40 | 96 | 1012.2 |
| 20260506214633 | 25 | 86 | 3.2 | 8.0 | 0.00 | 1.40 | 1.40 | 96 | 1012.2 |
| 20260506214131 | 25 | 54 | 4.8 | 6.4 | 0.00 | 1.40 | 1.40 | 95 | 1012.5 |
| 20260506213629 | 25 | 60 | 3.2 | 4.8 | 0.00 | 1.40 | 1.40 | 96 | 1012.5 |
| 20260506213126 | 25 | 37 | 3.2 | 4.8 | 0.00 | 1.40 | 1.40 | 96 | 1012.5 |
| 20260506212623 | 25 | 58 | 3.2 | 8.0 | 0.00 | 1.40 | 1.40 | 96 | 1012.5 |
| 20260506212118 | 25 | 49 | 1.6 | 6.4 | 0.00 | 1.40 | 1.40 | 96 | 1012.5 |
| 20260506211614 | 25 | 49 | 1.6 | 6.4 | 0.00 | 1.40 | 1.40 | 96 | 1012.2 |
| 20260506211111 | 25 | 76 | 4.8 | 6.4 | 0.00 | 1.40 | 1.40 | 97 | 1012.2 |
| 20260506210608 | 25 | 76 | 4.8 | 6.4 | 0.00 | 1.40 | 1.40 | 97 | 1012.2 |
| 20260506210104 | 25 | 81 | 1.6 | 4.8 | 0.00 | 1.40 | 1.40 | 98 | 1012.2 |
| 20260506205601 | 25 | 30 | 3.2 | 6.4 | 0.00 | 1.40 | 1.40 | 97 | 1012.2 |
| 20260506205056 | 25 | 6 | 1.6 | 6.4 | 0.00 | 1.37 | 1.37 | 98 | 1012.2 |
| 20260506204554 | 25 | 60 | 4.8 | 6.4 | 0.00 | 1.37 | 1.37 | 97 | 1012.2 |
| 20260506204051 | 25 | 51 | 3.2 | 4.8 | 0.00 | 1.37 | 1.37 | 98 | 1012.2 |
| 20260506203549 | 25 | 51 | 4.8 | 6.4 | 0.00 | 1.37 | 1.37 | 98 | 1011.9 |
| 20260506203046 | 25 | 54 | 4.8 | 6.4 | 0.00 | 1.35 | 1.35 | 98 | 1011.9 |
| 20260506202543 | 25 | 26 | 1.6 | 4.8 | 0.00 | 1.35 | 1.35 | 98 | 1011.9 |
| 20260506202039 | 25 | 26 | 3.2 | 6.4 | 0.00 | 1.35 | 1.35 | 98 | 1011.9 |
| 20260506201537 | 25 | 26 | 0.0 | 0.0 | 0.00 | 1.32 | 1.32 | 98 | 1011.9 |
| 20260506201033 | 25 | 13 | 0.0 | 3.2 | 0.00 | 1.32 | 1.32 | 98 | 1011.9 |
| 20260506200530 | 24 | 85 | 1.6 | 4.8 | 0.00 | 1.30 | 1.30 | 98 | 1011.9 |
| 20260506200027 | 24 | 85 | 1.6 | 3.2 | 0.00 | 1.30 | 1.30 | 99 | 1011.9 |
| 20260506195524 | 24 | 88 | 3.2 | 6.4 | 0.00 | 1.30 | 1.30 | 98 | 1011.9 |
| 20260506195020 | 24 | 23 | 4.8 | 6.4 | 0.00 | 1.30 | 1.30 | 99 | 1011.9 |
| 20260506194518 | 24 | 44 | 3.2 | 6.4 | 0.00 | 1.30 | 1.30 | 98 | 1011.5 |
| 20260506194014 | 24 | 44 | 3.2 | 6.4 | 0.00 | 1.30 | 1.30 | 98 | 1011.5 |
| 20260506193511 | 24 | 44 | 1.6 | 4.8 | 0.00 | 1.30 | 1.30 | 98 | 1011.5 |
| 20260506193008 | 24 | 44 | 1.6 | 4.8 | 0.00 | 1.30 | 1.30 | 98 | 1011.5 |
| 20260506192505 | 24 | 44 | 1.6 | 3.2 | 0.00 | 1.30 | 1.30 | 98 | 1011.5 |
| 20260506192001 | 24 | 54 | 3.2 | 6.4 | 0.00 | 1.30 | 1.30 | 98 | 1011.5 |
| 20260506191458 | 24 | 54 | 1.6 | 4.8 | 0.00 | 1.30 | 1.30 | 98 | 1011.5 |
| 20260506190954 | 24 | 54 | 1.6 | 3.2 | 0.00 | 1.30 | 1.30 | 98 | 1011.2 |
| 20260506190451 | 24 | 54 | 1.6 | 4.8 | 0.00 | 1.30 | 1.30 | 98 | 1011.2 |
| 20260506185948 | 24 | 54 | 0.0 | 0.0 | 0.00 | 1.30 | 1.30 | 98 | 1011.2 |
| 20260506185445 | 24 | 4 | 0.0 | 0.0 | 0.00 | 1.30 | 1.30 | 98 | 1011.2 |
| 20260506184942 | 24 | 4 | 0.0 | 3.2 | 0.00 | 1.30 | 1.30 | 98 | 1011.2 |
| 20260506184439 | 24 | 70 | 1.6 | 4.8 | 0.00 | 1.30 | 1.30 | 98 | 1010.8 |
| 20260506183936 | 25 | 70 | 1.6 | 4.8 | 0.00 | 1.30 | 1.30 | 98 | 1010.8 |
| 20260506183431 | 25 | 72 | 1.6 | 6.4 | 0.00 | 1.27 | 1.27 | 98 | 1010.8 |
| 20260506182929 | 25 | 91 | 3.2 | 6.4 | 0.00 | 1.27 | 1.27 | 98 | 1010.8 |
| 20260506182426 | 25 | 50 | 1.6 | 4.8 | 0.00 | 1.27 | 1.27 | 98 | 1010.8 |
| 20260506181923 | 25 | 63 | 1.6 | 8.0 | 0.00 | 1.27 | 1.27 | 98 | 1010.5 |
| 20260506181421 | 25 | 31 | 0.0 | 0.0 | 0.00 | 1.27 | 1.27 | 99 | 1010.5 |
| 20260506180918 | 25 | 64 | 0.0 | 3.2 | 0.00 | 1.27 | 1.27 | 98 | 1010.8 |
| 20260506180414 | 25 | 26 | 1.6 | 4.8 | 0.00 | 1.27 | 1.27 | 98 | 1010.8 |
| 20260506175911 | 25 | 80 | 3.2 | 4.8 | 0.00 | 1.24 | 1.24 | 98 | 1010.8 |
| 20260506175408 | 25 | 58 | 0.0 | 3.2 | 1.19 | 1.19 | 1.19 | 98 | 1010.8 |
| 20260506174904 | 25 | 58 | 1.6 | 6.4 | 1.19 | 1.17 | 1.17 | 98 | 1010.8 |
| 20260506174402 | 25 | 74 | 3.2 | 6.4 | 1.19 | 1.14 | 1.14 | 98 | 1010.8 |
| 20260506173859 | 24 | 46 | 3.2 | 4.8 | 0.00 | 1.14 | 1.14 | 98 | 1010.8 |
| 20260506173356 | 24 | 66 | 3.2 | 4.8 | 0.00 | 1.12 | 1.12 | 98 | 1010.8 |
| 20260506172853 | 24 | 58 | 1.6 | 3.2 | 0.00 | 1.12 | 1.12 | 97 | 1010.8 |
| 20260506172349 | 24 | 56 | 3.2 | 4.8 | 0.00 | 1.12 | 1.12 | 97 | 1010.8 |
| 20260506171847 | 24 | 44 | 3.2 | 6.4 | 0.00 | 1.12 | 1.12 | 97 | 1010.8 |
| 20260506171344 | 24 | 43 | 3.2 | 8.0 | 0.00 | 1.12 | 1.12 | 98 | 1010.5 |
| 20260506170842 | 24 | 72 | 3.2 | 4.8 | 0.00 | 1.12 | 1.12 | 98 | 1010.5 |
| 20260506170338 | 25 | 68 | 4.8 | 9.7 | 0.00 | 1.12 | 1.12 | 98 | 1010.5 |
| 20260506165837 | 25 | 39 | 3.2 | 4.8 | 0.00 | 1.12 | 1.12 | 98 | 1010.5 |
| 20260506165334 | 25 | 39 | 3.2 | 4.8 | 0.00 | 1.12 | 1.12 | 98 | 1010.5 |
| 20260506164830 | 25 | 39 | 3.2 | 4.8 | 0.00 | 1.12 | 1.12 | 98 | 1010.5 |
| 20260506164327 | 25 | 68 | 3.2 | 6.4 | 0.00 | 1.12 | 1.12 | 98 | 1010.5 |
| 20260506163825 | 25 | 65 | 3.2 | 8.0 | 0.00 | 1.12 | 1.12 | 98 | 1010.5 |
| 20260506163319 | 25 | 64 | 3.2 | 4.8 | 0.00 | 1.12 | 1.12 | 98 | 1010.5 |
| 20260506162815 | 25 | 64 | 0.0 | 3.2 | 0.00 | 1.12 | 1.12 | 98 | 1010.5 |
| 20260506162313 | 25 | 349 | 1.6 | 6.4 | 0.00 | 1.12 | 1.12 | 98 | 1010.5 |
| 20260506161810 | 24 | 33 | 3.2 | 4.8 | 0.00 | 1.12 | 1.12 | 98 | 1010.8 |
| 20260506161307 | 24 | 72 | 3.2 | 4.8 | 0.00 | 1.02 | 1.02 | 98 | 1010.8 |
| 20260506153323 | 24 | 72 | 3.2 | 4.8 | 0.00 | 1.02 | 1.02 | 98 | 1010.8 |
| 20260506152820 | 24 | 72 | 3.2 | 4.8 | 0.00 | 1.02 | 1.02 | 98 | 1010.8 |
| 20260506152317 | 24 | 72 | 0.0 | 1.6 | 0.00 | 1.02 | 1.02 | 98 | 1010.8 |
| 20260506151816 | 24 | 72 | 3.2 | 4.8 | 0.00 | 1.02 | 1.02 | 98 | 1011.2 |
| 20260506151312 | 24 | 56 | 1.6 | 4.8 | 0.00 | 1.02 | 1.02 | 98 | 1011.2 |
| 20260506150809 | 24 | 56 | 1.6 | 6.4 | 0.00 | 1.02 | 1.02 | 98 | 1011.2 |
| 20260506150306 | 24 | 75 | 1.6 | 4.8 | 0.00 | 1.02 | 1.02 | 98 | 1011.2 |
| 20260506145803 | 24 | 59 | 3.2 | 9.7 | 0.00 | 0.99 | 0.99 | 98 | 1011.5 |
| 20260506145259 | 25 | 54 | 4.8 | 8.0 | 0.00 | 0.97 | 0.97 | 98 | 1011.5 |
| 20260506144757 | 25 | 64 | 0.0 | 3.2 | 0.00 | 0.91 | 0.91 | 99 | 1011.9 |
| 20260506144254 | 25 | 64 | 1.6 | 6.4 | 1.19 | 0.89 | 0.89 | 99 | 1011.9 |
| 20260506143751 | 24 | 51 | 3.2 | 6.4 | 0.00 | 0.89 | 0.89 | 99 | 1011.9 |
| 20260506143248 | 24 | 338 | 0.0 | 0.0 | 0.00 | 0.89 | 0.89 | 99 | 1012.2 |
| 20260506142747 | 24 | 66 | 1.6 | 4.8 | 0.00 | 0.89 | 0.89 | 99 | 1012.2 |
| 20260506142245 | 24 | 66 | 3.2 | 4.8 | 0.00 | 0.86 | 0.86 | 98 | 1012.2 |
| 20260506141743 | 24 | 60 | 4.8 | 8.0 | 1.19 | 0.84 | 0.84 | 98 | 1012.2 |
| 20260506141241 | 24 | 54 | 3.2 | 6.4 | 0.00 | 0.81 | 0.81 | 98 | 1012.2 |
| 20260506140738 | 24 | 52 | 3.2 | 8.0 | 0.00 | 0.76 | 0.76 | 98 | 1012.5 |
| 20260506140235 | 24 | 66 | 4.8 | 9.7 | 0.00 | 0.66 | 0.66 | 98 | 1012.2 |
| 20260506135731 | 25 | 57 | 6.4 | 9.7 | 2.39 | 0.41 | 0.41 | 98 | 1012.5 |
| 20260506135228 | 25 | 72 | 6.4 | 12.9 | 0.00 | 0.33 | 0.33 | 98 | 1012.5 |
| 20260506134725 | 25 | 56 | 9.7 | 17.7 | 1.19 | 0.20 | 0.20 | 98 | 1012.5 |
| 20260506134221 | 25 | 66 | 1.6 | 3.2 | 0.00 | 0.10 | 0.10 | 98 | 1012.2 |
| 20260506133719 | 25 | 16 | 0.0 | 0.0 | 0.00 | 0.05 | 0.05 | 98 | 1012.5 |
| 20260506133215 | 25 | 61 | 3.2 | 6.4 | 0.00 | 0.05 | 0.05 | 98 | 1012.5 |
| 20260506132712 | 25 | 61 | 4.8 | 6.4 | 0.00 | 0.03 | 0.03 | 97 | 1012.5 |
| 20260506132209 | 25 | 61 | 3.2 | 8.0 | 0.00 | 0.00 | 0.00 | 97 | 1012.5 |
| 20260506131707 | 25 | 72 | 3.2 | 8.0 | 0.00 | 0.00 | 0.00 | 97 | 1012.9 |
| 20260506131203 | 25 | 58 | 3.2 | 6.4 | 0.00 | 0.00 | 0.00 | 97 | 1012.9 |
| 20260506130659 | 25 | 46 | 3.2 | 6.4 | 0.00 | 0.00 | 0.00 | 97 | 1012.9 |
| 20260506130157 | 25 | 55 | 6.4 | 11.3 | 0.00 | 0.00 | 0.00 | 97 | 1012.9 |
| 20260506125655 | 25 | 65 | 6.4 | 11.3 | 0.00 | 2.64 | 2.64 | 97 | 1012.9 |
| 20260506125152 | 25 | 62 | 4.8 | 6.4 | 0.00 | 2.62 | 2.62 | 97 | 1012.9 |
| 20260506124650 | 25 | 43 | 4.8 | 9.7 | 1.19 | 2.59 | 2.59 | 97 | 1012.9 |
| 20260506124147 | 25 | 73 | 1.6 | 6.4 | 0.00 | 2.59 | 2.59 | 97 | 1012.9 |
| 20260506123645 | 25 | 73 | 3.2 | 4.8 | 0.00 | 2.59 | 2.59 | 97 | 1012.9 |
| 20260506123144 | 25 | 73 | 3.2 | 4.8 | 0.00 | 2.59 | 2.59 | 96 | 1012.9 |
| 20260506122640 | 25 | 66 | 4.8 | 6.4 | 0.00 | 2.57 | 2.57 | 96 | 1012.9 |
| 20260506122138 | 25 | 66 | 3.2 | 6.4 | 0.00 | 2.57 | 2.57 | 95 | 1012.5 |
| 20260506121635 | 25 | 66 | 6.4 | 6.4 | 0.00 | 2.57 | 2.57 | 95 | 1012.5 |
| 20260506121131 | 25 | 75 | 4.8 | 6.4 | 0.00 | 2.57 | 2.57 | 95 | 1012.5 |
| 20260506120630 | 25 | 62 | 3.2 | 6.4 | 0.00 | 2.57 | 2.57 | 95 | 1012.5 |
| 20260506120126 | 25 | 62 | 3.2 | 4.8 | 0.00 | 2.57 | 2.57 | 95 | 1012.5 |
| 20260506115625 | 25 | 33 | 3.2 | 11.3 | 0.00 | 2.57 | 2.57 | 96 | 1012.2 |
| 20260506115123 | 25 | 355 | 3.2 | 8.0 | 0.00 | 2.57 | 2.57 | 98 | 1011.9 |
| 20260506114620 | 25 | 334 | 1.6 | 6.4 | 0.00 | 2.57 | 2.57 | 98 | 1011.9 |
| 20260506114118 | 25 | 239 | 0.0 | 0.0 | 0.00 | 2.57 | 2.57 | 98 | 1012.2 |
| 20260506113616 | 25 | 239 | 0.0 | 0.0 | 0.00 | 2.57 | 2.57 | 98 | 1012.2 |
| 20260506113113 | 25 | 239 | 0.0 | 0.0 | 0.00 | 2.57 | 2.57 | 98 | 1012.2 |
| 20260506112609 | 25 | 239 | 0.0 | 0.0 | 0.00 | 2.57 | 2.57 | 98 | 1011.9 |
| 20260506112107 | 25 | 239 | 0.0 | 0.0 | 0.00 | 2.57 | 2.57 | 98 | 1012.2 |
| 20260506111604 | 25 | 239 | 0.0 | 0.0 | 0.00 | 2.57 | 2.57 | 98 | 1012.2 |
| 20260506111102 | 25 | 239 | 0.0 | 0.0 | 0.00 | 2.57 | 2.57 | 98 | 1012.5 |
| 20260506110559 | 25 | 239 | 0.0 | 0.0 | 0.00 | 2.57 | 2.57 | 98 | 1012.5 |
| 20260506110056 | 25 | 239 | 0.0 | 0.0 | 0.00 | 2.57 | 2.57 | 98 | 1012.5 |
| 20260506105552 | 25 | 239 | 0.0 | 0.0 | 0.00 | 2.57 | 2.57 | 97 | 1012.5 |
| 20260506105050 | 25 | 239 | 0.0 | 0.0 | 0.00 | 2.57 | 2.57 | 97 | 1012.5 |
| 20260506104548 | 25 | 239 | 0.0 | 0.0 | 0.00 | 2.57 | 2.57 | 97 | 1012.5 |
| 20260506104045 | 25 | 239 | 0.0 | 0.0 | 0.00 | 2.57 | 2.57 | 96 | 1012.5 |
| 20260506103542 | 25 | 239 | 3.2 | 4.8 | 0.00 | 2.57 | 2.57 | 96 | 1012.5 |
| 20260506103039 | 25 | 239 | 0.0 | 0.0 | 0.00 | 2.57 | 2.57 | 96 | 1012.5 |
| 20260506102537 | 25 | 150 | 1.6 | 4.8 | 0.00 | 2.57 | 2.57 | 95 | 1012.5 |
| 20260506102034 | 25 | 150 | 0.0 | 0.0 | 0.00 | 2.57 | 2.57 | 93 | 1012.5 |
| 20260506101531 | 25 | 150 | 0.0 | 3.2 | 0.00 | 2.57 | 2.57 | 92 | 1012.5 |
| 20260506101028 | 25 | 111 | 6.4 | 12.9 | 0.00 | 2.54 | 2.54 | 94 | 1012.5 |
| 20260506100526 | 25 | 130 | 1.6 | 4.8 | 0.00 | 2.54 | 2.54 | 95 | 1012.2 |
| 20260506100024 | 25 | 256 | 3.2 | 9.7 | 0.00 | 2.51 | 2.51 | 96 | 1012.5 |
| 20260506095523 | 25 | 60 | 0.0 | 0.0 | 0.00 | 2.49 | 2.49 | 96 | 1012.5 |
| 20260506095018 | 25 | 63 | 1.6 | 6.4 | 1.19 | 2.41 | 2.41 | 95 | 1012.9 |
| 20260506094516 | 25 | 55 | 3.2 | 8.0 | 0.00 | 2.36 | 2.36 | 96 | 1012.9 |
| 20260506094014 | 25 | 68 | 1.6 | 8.0 | 0.00 | 2.36 | 2.36 | 97 | 1012.9 |
| 20260506093512 | 25 | 231 | 0.0 | 3.2 | 0.00 | 2.34 | 2.34 | 98 | 1012.9 |
| 20260506093009 | 25 | 232 | 0.0 | 0.0 | 1.19 | 2.29 | 2.29 | 97 | 1012.9 |